[Iaude] MPEC B141: 2019 BV3 [a=0.87,e=0.55,i=19.5,H=25.3]

mpec at mpcdb1.cfa.harvard.edu mpec at mpcdb1.cfa.harvard.edu
Tue Jan 29 07:23:16 EST 2019


M.P.E.C. 2019-B141                               Issued 2019 Jan. 29, 12:20 UT
 
     The Minor Planet Electronic Circulars contain information on unusual
         minor planets and routine data on comets.  They are published
    on behalf of Division F of the International Astronomical Union by the
          Minor Planet Center, Smithsonian Astrophysical Observatory,
                          Cambridge, MA 02138, U.S.A.

             Prepared using the Tamkin Foundation Computer Network

                              MPC at CFA.HARVARD.EDU
            URL https://www.minorplanetcenter.net/    ISSN 1523-6714


                                   2019 BV3
 
Observations:
     K19B03V* C2019 01 27.34276 09 30 14.36 +07 03 34.3          19.6 GVEB141G96
     K19B03V  C2019 01 27.34793 09 30 04.60 +07 03 13.2          19.7 GVEB141G96
     K19B03V  C2019 01 27.35825 09 29 45.37 +07 02 31.5          19.4 GVEB141G96
     K19B03V  C2019 01 28.31573 09 03 31.47 +06 01 54.6          20.1 GVEB141703
     K19B03V  C2019 01 28.31666 09 03 30.23 +06 01 51.6          20.1 GVEB141703
     K19B03V  C2019 01 28.31759 09 03 28.79 +06 01 49.4          20.4 GVEB141703
     K19B03V  C2019 01 28.31852 09 03 27.30 +06 01 44.1          20.7 GVEB141703
     K19B03V  C2019 01 29.39687308 39 51.82 +05 03 46.1          19.5 GVEB141H01
     K19B03V  C2019 01 29.40353208 39 43.90 +05 03 26.4          20.4 GVEB141H01
     K19B03V  C2019 01 29.43366 08 39 08.48 +05 02 00.8          20.2 GVEB141I52
     K19B03V  C2019 01 29.43486 08 39 07.09 +05 01 56.6          19.6 GVEB141I52
     K19B03V  C2019 01 29.43682 08 39 04.75 +05 01 51.2          20.6 GVEB141I52
     K19B03V  C2019 01 29.43802 08 39 03.34 +05 01 47.8          20.2 GVEB141I52
 
Observer details:
703 Catalina Sky Survey.  Observer H. Groeller.  Measurers B. M. Africano,
    E. J. Christensen, G. A. Farneth, D. C. Fuls, A. R. Gibbs, A. D. Grauer,
    H. Groeller, R. A. Kowalski, S. M. Larson, G. J. Leonard, T. A. Pruyne,
    R. L. Seaman, F. C. Shelly.  0.68-m Schmidt + 10K CCD.
G96 Mt. Lemmon Survey.  Observer D. C. Fuls.  Measurers B. M. Africano,
    E. J. Christensen, G. A. Farneth, D. C. Fuls, A. R. Gibbs, A. D. Grauer,
    H. Groeller, R. A. Kowalski, S. M. Larson, G. J. Leonard, T. A. Pruyne,
    R. L. Seaman, F. C. Shelly.  1.5-m reflector + 10K CCD.
H01 Magdalena Ridge Observatory, Socorro.  Observers W. H. Ryan, E. V. Ryan.
    Measurer W. H. Ryan.  2.4-m f/8.9 Ritchey-Chretien + CCD.
I52 Steward Observatory, Mt. Lemmon Station.  Observer H. Groeller.
    Measurers B. M. Africano, E. J. Christensen, G. A. Farneth, D. C. Fuls,
    A. R. Gibbs, A. D. Grauer, H. Groeller, R. A. Kowalski, S. M. Larson,
    G. J. Leonard, T. A. Pruyne, R. L. Seaman, F. C. Shelly.  1.0-m reflector
    + CCD.
 
Orbital elements:
2019 BV3                                                 Earth MOID = 0.0201 AU
Epoch 2019 Apr. 27.0 TT = JDT 2458600.5                 MPC
M 189.31684              (2000.0)            P               Q
n   1.20676527     Peri.   42.39184     +0.95038580     +0.15816392
a   0.8737507      Node   306.53224     -0.28672048     +0.77938504
e   0.5471906      Incl.   19.47297     +0.12065733     +0.60625335
P   0.82           H   25.3           G   0.15           U   6
Residuals in seconds of arc
190127 G96  0.1+  0.1-    190128 703  0.7+  1.3+    190129 I52  0.5+  0.6-
190127 G96  0.0   0.2-    190128 703  0.4-  0.8-    190129 I52  0.0   0.2-
190127 G96 (3.0+  0.1-)   190129 H01  0.4-  0.2+    190129 I52  0.1+  0.1-
190128 703  1.5-  0.1-    190129 H01  0.2-  0.2+
190128 703  1.1+  0.2+    190129 I52  0.1+  0.1+

Ephemeris:
2019 BV3                 a,e,i = 0.87, 0.55, 19                  q = 0.3956
Date    TT    R. A. (2000) Decl.     Delta      r     Elong.  Phase     V
2018 12 30    17 36 48.7 +02 23 06   0.2556  0.7704    29.2   141.5    28.8
...
2019 01 14    16 30 22.3 +06 36 20   0.1071  0.9252    54.4   120.2    25.1
...
2019 01 22    13 29 36.1 +11 01 18   0.04887 0.9972   104.2    73.1    21.3
...
2019 01 28    09 11 34.4 +06 22 02   0.06338 1.0463   165.7    13.5    20.2
2019 01 29    08 47 56.9 +05 24 51   0.07082 1.0541   167.2    11.9    20.4
2019 01 30    08 29 01.9 +04 37 00   0.07891 1.0617   166.0    13.0    20.7
...
2019 02 05    07 29 14.5 +02 02 13   0.1346  1.1055   151.0    25.6    22.3
...
2019 02 13    07 02 56.6 +01 04 01   0.2166  1.1577   138.2    34.6    23.7
...
2019 02 28    06 53 54.7 +01 03 12   0.3796  1.2380   122.8    42.2    25.3

A. U. Tomatic                (C) Copyright 2019 MPC           M.P.E.C. 2019-B141



More information about the Iaude mailing list